This demonstration page uses our WeatherBlox Daily Observations layout. Learn more.

Left ArrowRight Arrow

Hourly Observations for May 27, 2015

Temp ( °F °C ) Dew Point ( °F °C ) Humidity (%) Winds ( mph kmh ) Pressure ( in mb ) Visibility ( mi km ) Precip ( " mm )
12:15 am 00:15 Clear 77 25 72 22 83 83 S 9 15 30.15 1021 10 16 N/A
12:35 am 00:35 Clear 73 23 72 22 94 94 SSW 10 17 30.15 1021 10 16 N/A
12:55 am 00:55 Clear 73 23 72 22 94 94 SSW 10 17 30.15 1021 10 16 N/A
1:15 am 01:15 Clear 73 23 70 21 89 89 S 8 13 30.15 1021 10 16 N/A
1:35 am 01:35 Clear 73 23 70 21 89 89 SSW 10 17 30.15 1021 10 16 N/A
1:55 am 01:55 Clear 73 23 70 21 89 89 S 12 19 30.15 1021 10 16 N/A
2:15 am 02:15 Clear 75 24 70 21 83 83 S 12 19 30.15 1021 10 16 N/A
2:35 am 02:35 Clear 73 23 70 21 89 89 S 12 19 30.15 1021 10 16 N/A
2:55 am 02:55 Clear 73 23 70 21 89 89 S 10 17 30.15 1021 10 16 N/A
3:15 am 03:15 Clear 73 23 70 21 89 89 S 8 13 30.15 1021 10 16 N/A
3:35 am 03:35 Clear 72 22 70 21 94 94 S 12 19 30.15 1021 10 16 N/A
3:55 am 03:55 Clear 72 22 70 21 94 94 S 9 15 30.15 1021 10 16 N/A
4:15 am 04:15 Clear 72 22 70 21 94 94 S 7 11 30.15 1021 10 16 N/A
4:35 am 04:35 Clear 72 22 70 21 94 94 S 3 6 30.15 1021 10 16 N/A
4:55 am 04:55 Clear 70 21 70 21 100 100 N N/A 30.12 1020 10 16 N/A
5:15 am 05:15 Clear 70 21 70 21 100 100 N N/A 30.15 1021 10 16 N/A
5:35 am 05:35 Clear 70 21 70 21 100 100 S 6 9 30.15 1021 10 16 N/A
5:55 am 05:55 Sunny 70 21 70 21 100 100 S 6 9 30.15 1021 10 16 N/A
6:15 am 06:15 Mostly Cloudy 70 21 70 21 100 100 SSW 5 7 30.15 1021 10 16 N/A
6:35 am 06:35 Cloudy 70 21 70 21 100 100 S 5 7 30.15 1021 10 16 N/A
6:55 am 06:55 Cloudy 72 22 70 21 94 94 SSW 3 6 30.15 1021 10 16 N/A
7:15 am 07:15 Cloudy 72 22 72 22 100 100 S 5 7 30.15 1021 10 16 N/A
7:35 am 07:35 Cloudy 73 23 72 22 94 94 S 8 13 30.18 1022 10 16 N/A
7:55 am 07:55 Cloudy 73 23 72 22 94 94 SSW 7 11 30.18 1022 10 16 N/A
8:15 am 08:15 Cloudy 73 23 72 22 94 94 SSW 9 15 30.18 1022 10 16 N/A
8:35 am 08:35 Cloudy 73 23 72 22 94 94 S 10 17 30.18 1022 10 16 N/A
8:55 am 08:55 Cloudy 75 24 72 22 89 89 S 12 19 30.18 1022 10 16 N/A
9:15 am 09:15 Cloudy 77 25 72 22 83 83 S 10 17 30.18 1022 10 16 N/A
9:35 am 09:35 Cloudy 77 25 72 22 83 83 SSW 8 13 30.18 1022 10 16 N/A
9:55 am 09:55 Cloudy 79 26 72 22 79 79 SSW 9 15 30.18 1022 10 16 N/A
10:15 am 10:15 Mostly Cloudy 81 27 72 22 74 74 S 15 24 30.18 1022 10 16 N/A
10:35 am 10:35 Cloudy 79 26 72 22 79 79 S 13 20 30.18 1022 10 16 N/A
10:55 am 10:55 Mostly Cloudy 81 27 72 22 74 74 S 12 19 30.18 1022 10 16 N/A
11:15 am 11:15 Mostly Cloudy 82 28 72 22 70 70 SSW 8 13 30.18 1022 10 16 N/A
11:35 am 11:35 Mostly Cloudy 82 28 72 22 70 70 S 10 17 30.18 1022 10 16 N/A
11:55 am 11:55 Mostly Cloudy 86 30 72 22 62 62 SW 8 13 30.18 1022 10 16 N/A
12:15 pm 12:15 Partly Cloudy 86 30 72 22 62 62 SSW 13 20 30.15 1021 10 16 N/A
12:35 pm 12:35 Mostly Cloudy 84 29 72 22 66 66 SW 9 15 30.15 1021 10 16 N/A
12:55 pm 12:55 Partly Cloudy 86 30 72 22 62 62 SSW 12 19 30.15 1021 10 16 N/A
1:15 pm 13:15 Mostly Cloudy 86 30 72 22 62 62 SSW 12 19 30.15 1021 10 16 N/A
1:35 pm 13:35 Cloudy 86 30 70 21 59 59 WSW 10 17 30.15 1021 10 16 N/A
1:55 pm 13:55 Mostly Cloudy 88 31 70 21 55 55 S 10 17 30.15 1021 10 16 N/A
2:15 pm 14:15 Mostly Cloudy 79 26 68 20 70 70 NW 17 28 30.15 1021 10 16 N/A
2:35 pm 14:35 Cloudy with Light Rain 75 24 68 20 78 78 NW 16 26 30.15 1021 10 16 N/A
2:55 pm 14:55 Partly Cloudy 73 23 68 20 83 83 NW 9 15 30.15 1021 10 16 N/A
3:15 pm 15:15 Mostly Cloudy with Rain 72 22 70 21 94 94 NW 5 7 30.15 1021 7 11 N/A
3:35 pm 15:35 Mostly Cloudy 75 24 72 22 89 89 N N/A 30.15 1021 10 16 0.01 0.25
3:55 pm 15:55 Cloudy 77 25 72 22 83 83 N N/A 30.15 1021 10 16 0.01 0.25
4:15 pm 16:15 Mostly Cloudy 79 26 70 21 74 74 E 3 6 30.15 1021 10 16 N/A
4:35 pm 16:35 Mostly Cloudy 79 26 70 21 74 74 ESE 3 6 30.15 1021 10 16 N/A
4:55 pm 16:55 Partly Cloudy 81 27 70 21 70 70 N N/A 30.12 1020 10 16 N/A
5:15 pm 17:15 Partly Cloudy 81 27 70 21 70 70 SSW 3 6 30.12 1020 10 16 N/A
5:35 pm 17:35 Sunny 81 27 70 21 70 70 N N/A 30.12 1020 10 16 N/A
5:55 pm 17:55 Mostly Cloudy 81 27 70 21 70 70 N N/A 30.12 1020 10 16 N/A
6:15 pm 18:15 Mostly Cloudy 79 26 70 21 74 74 SE 5 7 30.12 1020 10 16 N/A
6:35 pm 18:35 Mostly Cloudy with Thunderstorms 79 26 72 22 79 79 SSE 5 7 30.12 1020 10 16 N/A
6:55 pm 18:55 Mostly Cloudy with Light Rain 79 26 73 23 84 84 SSW 14 22 30.15 1021 10 16 N/A
7:15 pm 19:15 Partly Cloudy 77 25 72 22 83 83 SE 3 6 30.12 1020 10 16 N/A
7:35 pm 19:35 Sunny 79 26 72 22 79 79 SSE 3 6 30.12 1020 10 16 N/A
7:55 pm 19:55 Sunny 79 26 72 22 79 79 SSW 10 17 30.12 1020 10 16 N/A
8:15 pm 20:15 Sunny 77 25 72 22 83 83 SE 3 6 30.12 1020 10 16 N/A
8:35 pm 20:35 Clear 77 25 73 23 89 89 SE 3 6 30.12 1020 10 16 N/A
8:55 pm 20:55 Clear 75 24 73 23 94 94 N N/A 30.12 1020 10 16 N/A
9:15 pm 21:15 Clear 73 23 72 22 94 94 ENE 3 6 30.15 1021 10 16 N/A
9:35 pm 21:35 Clear 73 23 72 22 94 94 N N/A 30.15 1021 10 16 N/A
9:55 pm 21:55 Clear 73 23 72 22 94 94 N N/A 30.15 1021 10 16 N/A
10:15 pm 22:15 Clear 72 22 72 22 100 100 E 3 6 30.15 1021 10 16 N/A
10:35 pm 22:35 Clear 72 22 72 22 100 100 N N/A 30.15 1021 10 16 N/A
10:55 pm 22:55 Clear 72 22 72 22 100 100 N N/A 30.15 1021 10 16 N/A
11:15 pm 23:15 Clear 70 21 70 21 100 100 N N/A 30.15 1021 10 16 N/A
11:35 pm 23:35 Clear 70 21 70 21 100 100 SSW 7 11 30.15 1021 10 16 N/A
11:55 pm 23:55 Clear 70 21 70 21 100 100 WNW 5 7 30.15 1021 10 16 N/A

Powered by AerisWeather